Powrót do katalogu

CZ-6A DEB

AktywnyPO
NORAD 60845·DEBRIS·🇨🇳 China

Wystrzelony Aug 6, 2024 z Taiyuan Satellite Launch Center

Loading…

Następne Przeloty (najbliższe 24 godziny)

TLE

ŚwieżeSource: Space-Track

Epoka: Sep 14, 2026, 07:13 UTC

1 60845U 24140HY  26257.30088358  .00000379  00000-0  74373-4 0  9998
2 60845  89.0312 262.7605 0121315 302.7914  56.1655 14.56159929110927

Śledź CZ-6A DEB w czasie rzeczywistym z AllMySat

Download on the App Store